Location: Unspecified
(0.0000°N, 0.0000°E)
Time: 03:03:58
(UTC+00:00)

Vanguard 1 - Pass Details

Date: 12 December 2023
Orbit: 653 x 3826 km, 34.3° (Epoch: 22 February)

Event Time Altitude Azimuth Distance (km) Brightness Sun altitude
Rises 16:52:21 0° 309° (NW) 4,946 14.0 14.1°
Reaches altitude 10° 16:58:28 10° 336° (NNW) 4,667 13.6 12.7°
Maximum altitude 17:03:52 13° 0° (N) 4,989 13.5 11.4°
Drops below altitude 10° 17:10:27 10° 23° (NNE) 5,838 13.6 9.9°
Sets 17:21:04 0° 48° (NE) 7,571 14.0 7.5°
